When you browse on this site, cookies collect data to enhance your experience and personalize the content and advertising you see.
Visit our Privacy Policy to learn more. By continuing to use the site, you agree to this use of cookies and data.
  • en France
  • Liste des pays
  • À 7 jours
  • Température de l'eau
  • Carte satellitaire
  • Carte météo
  • Widgets météo
  • user-avatar
    Se connecter

    Météo par heure à Pleven

    Ce jour, 25 Mai, Samedi

    Heure Température Précipitation Vent Pression Humidité
    00:00 +12°C° 0 mm 3 m/s 741 mmHg 85%
    01:00 +12°C° 0 mm 3 m/s 742 mmHg 84%
    02:00 +12°C° 0 mm 3 m/s 742 mmHg 83%
    03:00 +12°C° 0 mm 3 m/s 742 mmHg 82%
    04:00 +12°C° 0 mm 3 m/s 742 mmHg 81%
    05:00 +12°C° 0 mm 3 m/s 742 mmHg 80%
    06:00 +14°C° 0 mm 4 m/s 742 mmHg 76%
    07:00 +17°C° 0 mm 4 m/s 743 mmHg 72%
    08:00 +18°C° 0 mm 4 m/s 743 mmHg 68%
    09:00 +20°C° 0 mm 4 m/s 743 mmHg 65%
    10:00 +21°C° 0 mm 5 m/s 743 mmHg 62%
    11:00 +22°C° 0 mm 5 m/s 743 mmHg 59%
    12:00 +22°C° 0.3 mm 5 m/s 743 mmHg 60%
    13:00 +22°C° 0.3 mm 5 m/s 743 mmHg 60%
    14:00 +23°C° 0.3 mm 5 m/s 743 mmHg 61%
    15:00 +23°C° 0.1 mm 5 m/s 742 mmHg 61%
    16:00 +23°C° 0.1 mm 4 m/s 742 mmHg 61%
    17:00 +23°C° 0.1 mm 4 m/s 742 mmHg 61%
    18:00 +21°C° 0 mm 3 m/s 742 mmHg 67%
    19:00 +19°C° 0 mm 2 m/s 743 mmHg 73%
    20:00 +18°C° 0 mm 2 m/s 743 mmHg 79%
    21:00 +17°C° 0 mm 2 m/s 743 mmHg 80%
    22:00 +16°C° 0 mm 2 m/s 744 mmHg 81%
    23:00 +16°C° 0 mm 2 m/s 744 mmHg 82%

    Demain, 26 Mai, Dimanche

    Heure Température Précipitation Vent Pression Humidité
    00:00 +16°C° 0 mm 2 m/s 744 mmHg 81%
    01:00 +15°C° 0 mm 2 m/s 744 mmHg 80%
    02:00 +15°C° 0 mm 2 m/s 744 mmHg 80%
    03:00 +15°C° 0 mm 2 m/s 744 mmHg 80%
    04:00 +14°C° 0 mm 2 m/s 744 mmHg 79%
    05:00 +14°C° 0 mm 2 m/s 745 mmHg 79%
    06:00 +16°C° 0 mm 2 m/s 745 mmHg 74%
    07:00 +18°C° 0 mm 2 m/s 745 mmHg 69%
    08:00 +22°C° 0 mm 1 m/s 745 mmHg 64%
    09:00 +23°C° 0 mm 1 m/s 745 mmHg 60%
    10:00 +24°C° 0 mm 1 m/s 745 mmHg 55%
    11:00 +26°C° 0 mm 1 m/s 745 mmHg 50%
    12:00 +26°C° 0 mm 1 m/s 745 mmHg 49%
    13:00 +27°C° 0 mm 1 m/s 745 mmHg 47%
    14:00 +28°C° 0 mm 1 m/s 745 mmHg 45%
    15:00 +28°C° 0 mm 1 m/s 745 mmHg 48%
    16:00 +28°C° 0 mm 2 m/s 744 mmHg 50%
    17:00 +27°C° 0 mm 2 m/s 744 mmHg 52%
    18:00 +25°C° 0 mm 2 m/s 744 mmHg 59%
    19:00 +24°C° 0 mm 2 m/s 744 mmHg 65%
    20:00 +21°C° 0 mm 2 m/s 744 mmHg 71%
    21:00 +20°C° 0 mm 2 m/s 745 mmHg 72%
    22:00 +19°C° 0 mm 2 m/s 745 mmHg 73%
    23:00 +18°C° 0 mm 2 m/s 745 mmHg 75%

    Après-demain, 27 Mai, Lundi

    Heure Température Précipitation Vent Pression Humidité
    00:00 +18°C° 0 mm 2 m/s 745 mmHg 74%
    01:00 +18°C° 0 mm 2 m/s 745 mmHg 74%
    02:00 +17°C° 0 mm 2 m/s 745 mmHg 74%
    03:00 +17°C° 0 mm 2 m/s 745 mmHg 75%
    04:00 +17°C° 0 mm 2 m/s 745 mmHg 76%
    05:00 +16°C° 0 mm 1 m/s 745 mmHg 77%
    06:00 +20°C° 0 mm 1 m/s 745 mmHg 73%
    07:00 +22°C° 0 mm 1 m/s 745 mmHg 69%
    08:00 +22°C° 0 mm 0 m/s 745 mmHg 65%
    09:00 +25°C° 0 mm 1 m/s 745 mmHg 61%
    10:00 +27°C° 0 mm 1 m/s 745 mmHg 56%
    11:00 +28°C° 0 mm 2 m/s 745 mmHg 52%
    12:00 +29°C° 0 mm 2 m/s 745 mmHg 50%
    13:00 +29°C° 0 mm 2 m/s 744 mmHg 48%
    14:00 +30°C° 0 mm 3 m/s 744 mmHg 45%
    15:00 +30°C° 0 mm 2 m/s 744 mmHg 49%
    16:00 +29°C° 0 mm 2 m/s 744 mmHg 53%
    17:00 +29°C° 0 mm 2 m/s 743 mmHg 57%
    18:00 +27°C° 0 mm 2 m/s 743 mmHg 60%
    19:00 +25°C° 0 mm 2 m/s 743 mmHg 62%
    20:00 +24°C° 0 mm 2 m/s 743 mmHg 64%
    21:00 +23°C° 0 mm 2 m/s 743 mmHg 65%
    22:00 +21°C° 0 mm 2 m/s 743 mmHg 65%
    23:00 +20°C° 0 mm 2 m/s 743 mmHg 65%

    28 Mai, Mardi

    Heure Température Précipitation Vent Pression Humidité
    00:00 +20°C° 0 mm 2 m/s 743 mmHg 68%
    01:00 +19°C° 0 mm 2 m/s 743 mmHg 71%
    02:00 +19°C° 0 mm 1 m/s 743 mmHg 74%
    03:00 +19°C° 0 mm 1 m/s 743 mmHg 76%
    04:00 +18°C° 0 mm 1 m/s 742 mmHg 78%
    05:00 +18°C° 0 mm 1 m/s 742 mmHg 80%
    06:00 +20°C° 0 mm 1 m/s 742 mmHg 74%
    07:00 +22°C° 0 mm 1 m/s 742 mmHg 68%
    08:00 +24°C° 0 mm 1 m/s 742 mmHg 63%
    09:00 +26°C° 0 mm 1 m/s 742 mmHg 56%
    10:00 +27°C° 0 mm 1 m/s 742 mmHg 49%
    11:00 +29°C° 0 mm 2 m/s 742 mmHg 42%
    12:00 +30°C° 0 mm 2 m/s 741 mmHg 40%
    13:00 +31°C° 0 mm 2 m/s 741 mmHg 37%
    14:00 +33°C° 0 mm 3 m/s 740 mmHg 35%
    15:00 +32°C° 0 mm 2 m/s 740 mmHg 37%
    16:00 +32°C° 0 mm 2 m/s 739 mmHg 39%
    17:00 +32°C° 0 mm 2 m/s 739 mmHg 42%
    18:00 +30°C° 0 mm 2 m/s 739 mmHg 46%
    19:00 +27°C° 0 mm 2 m/s 739 mmHg 50%
    20:00 +25°C° 0 mm 3 m/s 739 mmHg 55%
    21:00 +24°C° 0 mm 3 m/s 739 mmHg 55%
    22:00 +22°C° 0 mm 3 m/s 740 mmHg 55%
    23:00 +21°C° 0 mm 3 m/s 740 mmHg 55%

    29 Mai, Mercredi

    Heure Température Précipitation Vent Pression Humidité
    00:00 +20°C° 0 mm 3 m/s 740 mmHg 56%
    01:00 +19°C° 0 mm 3 m/s 740 mmHg 57%
    02:00 +19°C° 0 mm 3 m/s 740 mmHg 58%
    03:00 +18°C° 0 mm 2 m/s 741 mmHg 61%
    04:00 +18°C° 0 mm 2 m/s 741 mmHg 63%
    05:00 +17°C° 0 mm 2 m/s 741 mmHg 66%
    06:00 +19°C° 0 mm 2 m/s 742 mmHg 64%
    07:00 +21°C° 0 mm 2 m/s 742 mmHg 62%
    08:00 +24°C° 0 mm 2 m/s 742 mmHg 61%
    09:00 +25°C° 0 mm 2 m/s 742 mmHg 56%
    10:00 +26°C° 0 mm 2 m/s 742 mmHg 51%
    11:00 +28°C° 0 mm 2 m/s 743 mmHg 47%
    12:00 +28°C° 0 mm 2 m/s 742 mmHg 46%
    13:00 +29°C° 0 mm 2 m/s 742 mmHg 44%
    14:00 +29°C° 0 mm 1 m/s 742 mmHg 43%
    15:00 +29°C° 0 mm 1 m/s 742 mmHg 44%
    16:00 +29°C° 0 mm 1 m/s 742 mmHg 44%
    17:00 +29°C° 0 mm 1 m/s 742 mmHg 45%
    18:00 +27°C° 0 mm 1 m/s 743 mmHg 50%
    19:00 +25°C° 0 mm 1 m/s 743 mmHg 56%
    20:00 +24°C° 0 mm 1 m/s 743 mmHg 61%
    21:00 +23°C° 0 mm 1 m/s 744 mmHg 63%
    22:00 +22°C° 0 mm 1 m/s 744 mmHg 66%
    23:00 +20°C° 0 mm 2 m/s 744 mmHg 68%

    30 Mai, Jeudi

    Heure Température Précipitation Vent Pression Humidité
    00:00 +21°C° 0 mm 1 m/s 744 mmHg 69%
    01:00 +21°C° 0 mm 1 m/s 745 mmHg 71%
    02:00 +20°C° 0 mm 1 m/s 745 mmHg 72%
    03:00 +20°C° 0.1 mm 1 m/s 745 mmHg 75%
    04:00 +19°C° 0.1 mm 1 m/s 745 mmHg 77%
    05:00 +19°C° 0.1 mm 1 m/s 745 mmHg 79%
    06:00 +20°C° 0 mm 2 m/s 745 mmHg 74%
    07:00 +21°C° 0 mm 2 m/s 745 mmHg 69%
    08:00 +24°C° 0 mm 2 m/s 746 mmHg 63%
    09:00 +25°C° 0 mm 2 m/s 746 mmHg 61%
    10:00 +26°C° 0 mm 3 m/s 746 mmHg 58%
    11:00 +27°C° 0 mm 3 m/s 746 mmHg 55%
    12:00 +28°C° 0 mm 2 m/s 745 mmHg 53%
    13:00 +29°C° 0 mm 2 m/s 745 mmHg 51%
    14:00 +29°C° 0 mm 1 m/s 745 mmHg 49%
    15:00 +29°C° 0.2 mm 1 m/s 744 mmHg 51%
    16:00 +29°C° 0.2 mm 1 m/s 744 mmHg 53%
    17:00 +29°C° 0.2 mm 1 m/s 744 mmHg 55%
    18:00 +27°C° 0.1 mm 1 m/s 744 mmHg 61%
    19:00 +25°C° 0.1 mm 1 m/s 744 mmHg 67%
    20:00 +23°C° 0.1 mm 1 m/s 744 mmHg 72%
    21:00 +22°C° 0 mm 1 m/s 744 mmHg 74%
    22:00 +22°C° 0 mm 1 m/s 744 mmHg 76%
    23:00 +21°C° 0 mm 1 m/s 744 mmHg 78%
    Voir plus